This is the latest recevied weather packets stored in our database for station/object JE7UPL-13. If no packets are shown the sender has not sent any weather packets the latest 10 day(s).
| Time | Temp. | Humidity | Pressure | Rain* | Wind** | Luminosity | Snow |
|---|---|---|---|---|---|---|---|
| 1788583505 | 25° C | 52% | 1010.7 hPa | 0 mm | - | - | - |
| 1788582606 | 25° C | 54% | 1010.8 hPa | 0 mm | - | - | - |
| 1788581706 | 24.44° C | 53% | 1010.8 hPa | 0 mm | - | - | - |
| 1788580807 | 24.44° C | 55% | 1011.1 hPa | 0 mm | - | - | - |
| 1788579907 | 24.44° C | 56% | 1011 hPa | 0 mm | - | - | - |
| 1788579006 | 23.89° C | 56% | 1011 hPa | 0 mm | - | - | - |
| 1788578106 | 23.89° C | 58% | 1011 hPa | 0 mm | - | - | - |
| 1788577206 | 24.44° C | 55% | 1010.8 hPa | 0 mm | - | - | - |
| 1788576306 | 23.89° C | 55% | 1011 hPa | 0 mm | - | - | - |
| 1788575405 | 24.44° C | 55% | 1010.8 hPa | 0 mm | - | - | - |
| 1788574506 | 23.89° C | 57% | 1011.2 hPa | 0 mm | - | - | - |
| 1788573606 | 25° C | 56% | 1011.5 hPa | 0 mm | - | - | - |
| 1788572706 | 23.33° C | 58% | 1011.5 hPa | 0 mm | - | - | - |
| 1788571806 | 23.33° C | 58% | 1011.7 hPa | 0 mm | - | - | - |
| 1788570906 | 22.78° C | 60% | 1011.6 hPa | 0 mm | - | - | - |
| 1788570006 | 22.22° C | 59% | 1011.7 hPa | 0 mm | - | - | - |
| 1788569106 | 23.33° C | 62% | 1011.7 hPa | 0 mm | - | - | - |
| 1788568206 | 22.22° C | 62% | 1011.5 hPa | 0 mm | - | - | - |
| 1788567305 | 21.11° C | 74% | 1011.6 hPa | 0 mm | - | - | - |
| 1788566406 | 21.11° C | 72% | 1011.7 hPa | 0 mm | - | - | - |
| 1788565505 | 21.67° C | 72% | 1011.5 hPa | 0 mm | - | - | - |
| 1788564606 | 21.67° C | 71% | 1011.5 hPa | 0 mm | - | - | - |
| 1788563706 | 22.22° C | 65% | 1011.3 hPa | 0 mm | - | - | - |
| 1788562806 | 23.33° C | 63% | 1011.1 hPa | 0 mm | - | - | - |
| 1788561906 | 25° C | 63% | 1011.2 hPa | 0 mm | - | - | - |
* Rain latest hour (hover to see other rain measurements)
** Current wind speed in m/s (hover to see current wind gust speed)